Location: Habighorst
(52.7089°N, 10.2278°E)
Time: 23:33:10
(UTC+00:00)

YAOGAN 1 - Pass Details

Date: 13 January 2026
Orbit: 605 x 607 km, 97.8° (Epoch: 7 February)

Event Time Altitude Azimuth Distance (km) Brightness Sun altitude
Rises 06:40:06 0° 15° (NNE) 2,877 5.9 -6.7°
Reaches altitude 10° 06:42:18 10° 19° (NNE) 1,968 5.1 -6.4°
Maximum altitude 06:46:34 68° 102° (ESE) 657 3.0 -5.8°
Drops below altitude 10° 06:50:48 10° 186° (S) 1,951 5.4 -5.2°
Sets 06:52:58 0° 189° (S) 2,849 6.3 -4.9°
